IRIDIUM 33 DEB, 34159

Orbit data source: Space-Track

IRIDIUM 33 DEB, 34159 is space debris in LEO originally from a launch on Sun, 14 Sep 1997 UTC launched from the Tyuratam Missile And Space Complex (TTMTR). The debris from Iridium 33, an American commercial communications satellite, has been tracked extensively since its accidental collision with the defunct Russian satellite Cosmos 2251 in 2009. This event, occurring at high speed in low Earth orbit (LEO), generated thousands of pieces of space debris, significantly increasing the risk of further collisions. The Iridium 33 debris cloud has impacted space traffic management and orbital debris mitigation strategies, making it a subject of ongoing study in space situational awareness.

Loading next visibility...
Identifier
34159, 1997-051EN
Orbit
LEO
Country
Flag of USUS
Related business
Manufacturer
Unknown
Mission
Spacecraft
Bus & Motor
Unknown
Mass
Unknown
Launch date (UTC)
1997-09-14 (28 years ago)
Launch vehicle
Unknown
Launch site
Tyuratam Missile And Space Complex (TTMTR)
Object type
Payload
Rocket body
Debris
Shape & HBR
Unknown shape, 0.1 m
Radar Cross Section
Small (<0.1 m²)

Expand to show TLE details & history
Last TLE update: 13 hours ago

TLE from 13 hours ago
0 IRIDIUM 33 DEB
1 34159U 97051EN  25351.60276798  .00000996  00000-0  31876-3 0  9997
2 34159  86.3501  46.1679 0025921 270.5644  89.2584 14.38505774880294
Epoch: 2025-12-17T14:27Z
TLE epoch observation values (Epoch: 2025-12-17T14:27:59.153Z)
Latitude
-0.00002°
Longitude
102.70116°
Altitude
766.304 km
Speed
7.471 km/s
True Right ascension
03h 04m 40s
True Declination
0° 00' 00"
Sunlit
Object was in full shadow at epoch
Visualization orbit readout
Latitude
Unknown
Longitude
Unknown
Altitude
Unknown
Speed
Unknown
Apparent Right ascension
Unknown
Apparent Declination
Unknown
Sunlit
N/A
Visualization observer readout
Local Sidereal Time
02:45:22
Azimuth
Unknown
Elevation
Unknown
Doppler factor
Unknown
Orbital elements
Apogee altitude
778.903 km
Perigee altitude
741.895 km
Semi-major axis
7,138.536 km
Eccentricity
0.00259
Inclination
86.3501°
RAAN
46.1679°
Arg. of periapsis
270.5644°
True anomaly
89.55542°
Mean anomaly
89.2584°
Eccentric anomaly
89.40691°
Mean motion
3.59857 °/min
Orbital period
100.04 mins
BSTAR
0.00031876
Loading maneuver chart data...
Computing Atmospheric mass density...

Documentation

Showing up to 5 results
|